Location: Unspecified
(29.9680°N, 0.0000°E)
Time: 18:20:39
(UTC+00:00)

A-11 Canister half - Pass Details

Date: 27 June 2019
Orbit: 1526 x 1682 km, 47.3° (Epoch: 24 August)

Event Time Altitude Azimuth Distance (km) Brightness Sun altitude
Rises 05:03:38 0° 280° (W) 4,753 11.1 -0.3°
Reaches altitude 10° 05:07:22 10° 291° (WNW) 3,748 10.7 0.4°
Maximum altitude 05:15:15 29° 348° (NNW) 2,540 10.4 1.9°
Drops below altitude 10° 05:23:02 10° 46° (NE) 3,695 12.7 3.4°
Sets 05:26:42 0° 57° (ENE) 4,677 14.1 4.2°
